Precipitable_Water
1.29 1.32 1.31 1.30 1.31 1.32 1.35 1.35 1.35 1.36 1.41 1.48 1.47 1.51 1.52 1.57 1.59 1.62 1.65 1.65 1.61 1.60 1.64 1.69 1.74 1.74 1.74 1.76 1.78 1.74 1.79 1.74 1.83 1.82 1.75 1.73 1.66 1.63 1.61 1.58 1.58 1.52
1.24 1.28 1.30 1.32 1.32 1.33 1.34 1.38 1.38 1.35 1.36 1.39 1.48 1.55 1.57 1.60 1.59 1.60 1.58 1.57 1.58 1.56 1.61 1.63 1.64 1.68 1.68 1.71 1.69 1.69 1.71 1.72 1.69 1.81 1.72 1.67 1.65 1.63 1.59 1.60 1.61 1.64
1.23 1.24 1.24 1.23 1.24 1.27 1.28 1.33 1.38 1.37 1.35 1.36 1.38 1.47 1.56 1.59 1.61 1.58 1.57 1.52 1.50 1.52 1.53 1.56 1.56 1.59 1.63 1.65 1.67 1.64 1.64 1.67 1.68 1.79 1.78 1.71 1.71 1.67 1.68 1.70 1.67 1.62
1.22 1.19 1.20 1.21 1.24 1.27 1.30 1.30 1.32 1.33 1.34 1.32 1.32 1.38 1.45 1.54 1.56 1.56 1.52 1.49 1.46 1.45 1.49 1.51 1.50 1.51 1.54 1.58 1.59 1.58 1.62 1.64 1.75 1.77 1.75 1.75 1.70 1.72 1.71 1.68 1.70 1.71
1.25 1.18 1.17 1.20 1.23 1.27 1.31 1.26 1.25 1.29 1.27 1.29 1.33 1.34 1.38 1.45 1.52 1.51 1.49 1.46 1.43 1.42 1.42 1.44 1.46 1.45 1.49 1.52 1.54 1.52 1.55 1.58 1.64 1.65 1.63 1.64 1.71 1.67 1.68 1.68 1.66 1.64
1.36 1.31 1.22 1.16 1.18 1.21 1.21 1.21 1.21 1.24 1.27 1.25 1.26 1.31 1.31 1.37 1.38 1.41 1.45 1.43 1.42 1.37 1.39 1.39 1.40 1.41 1.43 1.46 1.49 1.49 1.51 1.51 1.58 1.58 1.54 1.53 1.62 1.68 1.66 1.67 1.61 1.57
1.34 1.34 1.28 1.22 1.14 1.15 1.15 1.19 1.21 1.21 1.23 1.26 1.29 1.25 1.27 1.28 1.29 1.31 1.38 1.42 1.41 1.39 1.36 1.39 1.39 1.37 1.40 1.43 1.44 1.44 1.46 1.47 1.54 1.54 1.50 1.47 1.48 1.53 1.59 1.57 1.53 1.53
1.38 1.38 1.37 1.32 1.20 1.14 1.11 1.15 1.18 1.19 1.19 1.22 1.22 1.26 1.23 1.21 1.23 1.26 1.29 1.34 1.34 1.35 1.36 1.37 1.39 1.37 1.36 1.37 1.37 1.38 1.41 1.45 1.43 1.41 1.41 1.40 1.42 1.41 1.43 1.46 1.48 1.44
1.45 1.42 1.41 1.36 1.28 1.19 1.11 1.09 1.11 1.15 1.19 1.15 1.14 1.18 1.22 1.17 1.17 1.20 1.24 1.27 1.26 1.28 1.32 1.32 1.35 1.36 1.35 1.33 1.34 1.34 1.34 1.38 1.42 1.42 1.38 1.34 1.32 1.33 1.36 1.41 1.38 1.36
1.49 1.45 1.42 1.40 1.33 1.28 1.17 1.10 1.08 1.10 1.14 1.11 1.10 1.10 1.11 1.15 1.11 1.15 1.19 1.21 1.19 1.17 1.22 1.26 1.28 1.30 1.32 1.33 1.31 1.31 1.32 1.32 1.34 1.36 1.36 1.34 1.31 1.33 1.36 1.36 1.33 1.33
1.52 1.51 1.46 1.42 1.38 1.36 1.29 1.23 1.13 1.08 1.10 1.07 1.07 1.05 1.06 1.08 1.10 1.08 1.10 1.15 1.13 1.10 1.11 1.15 1.18 1.23 1.24 1.26 1.31 1.33 1.32 1.30 1.31 1.29 1.29 1.29 1.30 1.31 1.33 1.34 1.35 1.34
1.54 1.53 1.49 1.47 1.45 1.43 1.39 1.36 1.30 1.19 1.12 1.09 1.04 1.03 1.03 1.04 1.07 1.07 1.03 1.05 1.08 1.08 1.09 1.12 1.14 1.16 1.18 1.18 1.21 1.29 1.31 1.28 1.25 1.24 1.25 1.27 1.28 1.27 1.27 1.27 1.25 1.27
1.56 1.54 1.53 1.52 1.52 1.50 1.49 1.48 1.43 1.37 1.26 1.17 1.12 1.04 1.00 0.99 1.02 1.05 1.06 1.03 1.05 1.05 1.04 1.08 1.12 1.13 1.14 1.14 1.14 1.19 1.26 1.24 1.17 1.18 1.19 1.20 1.19 1.17 1.16 1.16 1.16 1.17
1.59 1.60 1.60 1.59 1.59 1.58 1.55 1.52 1.50 1.48 1.43 1.35 1.29 1.16 1.05 1.00 0.98 0.99 1.03 1.01 1.00 1.01 1.02 1.05 1.09 1.12 1.13 1.13 1.14 1.14 1.15 1.16 1.11 1.08 1.11 1.15 1.15 1.15 1.13 1.10 1.10 1.10
1.66 1.66 1.67 1.66 1.63 1.61 1.58 1.55 1.53 1.52 1.52 1.48 1.42 1.33 1.25 1.17 1.09 1.03 1.01 0.99 0.98 0.96 0.96 0.98 0.99 1.04 1.08 1.10 1.09 1.09 1.09 1.07 1.06 1.03 1.00 1.01 1.05 1.10 1.13 1.12 1.08 1.06
1.73 1.69 1.68 1.68 1.66 1.62 1.60 1.60 1.57 1.56 1.54 1.51 1.48 1.45 1.40 1.34 1.26 1.20 1.11 1.05 1.00 0.97 0.95 0.93 0.92 0.94 0.98 0.98 1.01 1.02 1.03 0.99 1.02 1.03 1.01 1.00 1.00 1.01 1.03 1.07 1.09 1.08
1.82 1.77 1.71 1.68 1.68 1.67 1.67 1.65 1.62 1.60 1.57 1.54 1.52 1.50 1.46 1.43 1.37 1.30 1.23 1.17 1.11 1.04 0.99 0.95 0.92 0.92 0.91 0.88 0.86 0.87 0.93 0.98 0.97 0.97 1.00 0.99 0.96 0.97 0.97 0.99 1.02 1.06
1.85 1.82 1.75 1.70 1.71 1.71 1.68 1.69 1.68 1.65 1.61 1.58 1.55 1.52 1.51 1.49 1.43 1.37 1.34 1.30 1.24 1.17 1.10 1.04 1.01 0.97 0.94 0.89 0.85 0.83 0.83 0.86 0.92 0.95 0.95 0.96 0.97 0.94 0.94 0.96 0.96 0.96
1.95 1.86 1.78 1.74 1.72 1.71 1.74 1.74 1.71 1.69 1.64 1.60 1.57 1.59 1.59 1.54 1.49 1.45 1.42 1.40 1.35 1.28 1.22 1.18 1.13 1.09 1.01 0.93 0.88 0.84 0.83 0.84 0.84 0.88 0.92 0.95 0.97 0.99 0.96 0.93 0.91 0.90
2.02 1.96 1.85 1.77 1.76 1.77 1.75 1.74 1.73 1.67 1.65 1.65 1.64 1.65 1.62 1.57 1.55 1.52 1.51 1.47 1.44 1.39 1.33 1.29 1.25 1.21 1.14 1.04 0.95 0.89 0.85 0.85 0.84 0.84 0.85 0.88 0.93 0.96 0.97 0.97 0.95 0.90
2.07 2.03 1.96 1.89 1.84 1.78 1.75 1.70 1.68 1.69 1.67 1.64 1.64 1.62 1.62 1.59 1.56 1.55 1.56 1.56 1.53 1.51 1.45 1.39 1.35 1.31 1.24 1.15 1.08 1.02 0.96 0.93 0.91 0.88 0.85 0.85 0.88 0.92 0.94 0.93 0.94 0.95
2.11 2.07 2.01 1.97 1.90 1.84 1.78 1.74 1.72 1.69 1.67 1.71 1.68 1.67 1.67 1.64 1.61 1.60 1.58 1.57 1.57 1.56 1.52 1.46 1.45 1.42 1.35 1.28 1.22 1.16 1.14 1.11 1.06 1.00 0.94 0.91 0.90 0.91 0.95 0.98 0.98 0.96
2.20 2.14 2.08 2.04 1.98 1.87 1.79 1.75 1.72 1.71 1.73 1.79 1.74 1.71 1.66 1.61 1.58 1.57 1.58 1.56 1.56 1.57 1.54 1.52 1.50 1.50 1.45 1.39 1.33 1.30 1.27 1.24 1.19 1.14 1.08 1.03 0.99 1.00 1.01 1.03 1.04 1.03
2.20 2.16 2.11 2.08 2.03 1.94 1.88 1.84 1.82 1.81 1.79 1.82 1.73 1.69 1.66 1.66 1.67 1.64 1.61 1.55 1.49 1.50 1.53 1.50 1.51 1.55 1.54 1.49 1.44 1.40 1.37 1.32 1.29 1.24 1.18 1.14 1.11 1.11 1.10 1.08 1.07 1.06
2.19 2.19 2.16 2.14 2.09 2.04 2.00 1.94 1.90 1.87 1.88 1.87 1.80 1.75 1.73 1.77 1.76 1.72 1.68 1.63 1.55 1.49 1.51 1.47 1.47 1.52 1.55 1.52 1.48 1.45 1.42 1.40 1.36 1.30 1.23 1.19 1.16 1.13 1.15 1.13 1.11 1.09
2.08 2.12 2.15 2.17 2.16 2.16 2.12 2.07 2.05 2.01 1.94 1.89 1.87 1.83 1.79 1.79 1.78 1.71 1.68 1.68 1.69 1.64 1.58 1.57 1.51 1.44 1.50 1.49 1.48 1.47 1.45 1.45 1.44 1.35 1.25 1.21 1.21 1.18 1.14 1.15 1.15 1.12
Wind_Speed
21 20 20 19 18 18 17 17 16 16 15 14 13 12 12 12 11 11 10 10 9 8 8 8 7 7 6 6 6 5 5 5 5 4 4 5 5 5 5 5 6 6
21 21 21 20 19 18 18 18 17 16 16 15 14 13 13 12 12 11 11 10 10 9 9 8 8 7 7 6 6 5 5 5 5 4 4 4 4 4 5 5 5 5
22 22 22 21 20 19 19 18 18 17 17 16 15 14 14 13 13 12 12 11 10 10 9 9 8 8 8 7 6 6 5 5 5 5 4 4 4 4 4 5 5 5
22 22 22 22 21 21 19 19 18 18 17 17 16 16 15 14 14 13 13 12 11 10 10 10 9 9 8 8 7 6 6 6 5 5 5 4 4 4 4 5 5 5
22 22 22 22 22 22 21 20 19 19 18 18 17 17 16 15 15 14 13 13 12 11 11 10 10 9 9 9 8 7 7 6 6 6 5 5 4 4 4 4 5 5
23 23 22 22 22 22 22 21 21 20 19 19 18 18 17 17 16 15 15 14 13 12 12 11 11 10 10 9 9 8 8 7 7 6 6 6 5 5 4 4 5 5
23 23 23 22 22 23 23 23 22 21 20 19 19 19 18 18 17 16 16 15 14 13 13 12 12 11 11 10 10 10 9 8 8 8 7 7 6 6 5 5 5 5
24 24 23 23 23 23 23 23 23 23 22 21 20 20 19 19 18 18 17 16 15 15 14 14 13 13 12 12 11 11 10 10 9 9 8 8 8 7 6 6 6 6
25 24 24 24 24 23 23 23 24 23 23 22 22 21 21 20 20 19 18 18 17 16 16 15 14 14 13 13 13 12 12 11 11 10 10 9 9 9 8 7 7 7
25 25 25 25 25 24 24 24 24 23 23 23 23 22 22 21 21 20 20 19 18 18 17 17 16 16 15 15 14 14 13 13 12 12 11 11 10 10 9 9 8 8
26 26 26 26 25 25 25 25 24 23 23 24 24 24 23 22 22 22 21 21 20 19 19 18 18 17 17 16 16 15 15 14 14 13 12 12 11 11 10 10 10 9
27 27 27 27 27 26 26 25 25 24 24 24 24 24 24 23 23 22 22 22 21 21 20 20 19 19 18 18 17 17 17 16 15 14 14 13 13 12 12 11 11 11
27 27 27 27 27 27 27 26 25 25 25 24 24 24 25 24 24 24 23 23 22 22 22 21 21 20 20 19 19 18 18 18 17 16 15 15 14 14 13 13 13 12
27 27 27 28 28 28 28 27 26 26 26 25 25 25 25 25 25 24 24 24 23 23 23 23 22 22 21 21 20 20 20 19 19 18 17 16 16 15 15 14 14 14
28 28 27 28 28 28 28 28 28 27 27 26 26 26 25 25 25 25 25 25 25 24 24 24 24 23 23 23 22 21 21 21 20 20 19 19 18 17 17 16 16 15
28 28 28 28 28 28 28 28 28 28 28 28 27 27 26 26 26 26 26 25 25 25 25 25 25 24 24 24 24 23 22 22 21 21 21 21 20 20 19 18 18 17
28 28 29 29 29 29 28 29 29 29 29 29 28 28 27 27 27 27 27 26 26 26 26 26 26 26 26 26 26 25 24 23 23 22 22 22 22 22 21 21 20 19
28 28 29 29 29 29 29 29 29 29 30 29 29 29 28 28 28 28 28 28 27 27 27 27 27 27 27 27 27 27 27 26 25 24 24 23 23 23 23 23 22 22
29 28 29 29 30 30 30 29 30 30 30 30 30 30 30 29 29 29 28 28 28 28 28 28 28 28 28 28 28 29 29 28 27 26 25 25 24 24 24 24 24 23
29 29 29 29 29 30 30 30 30 30 30 30 30 30 30 30 30 30 30 29 29 29 29 29 29 29 29 29 29 30 30 30 29 28 27 27 26 26 25 25 25 25
29 29 29 29 29 30 30 31 31 30 30 30 30 30 30 30 30 30 30 30 30 30 30 29 29 29 29 29 30 30 30 30 30 30 29 28 28 27 27 27 26 26
29 29 29 29 29 29 30 30 31 31 31 30 31 31 31 30 30 30 30 30 30 30 30 30 30 30 29 29 30 30 30 30 30 30 30 29 29 29 28 28 28 27
28 28 29 29 28 29 30 30 31 31 31 31 31 31 31 31 31 30 30 30 31 31 31 30 30 30 30 30 30 30 30 30 30 30 30 30 30 29 29 29 29 28
28 28 28 29 29 29 29 30 30 31 31 31 32 32 32 32 31 31 31 30 30 30 31 31 31 30 30 31 31 30 30 30 30 29 29 29 29 29 29 29 30 30
29 29 29 29 29 29 30 30 30 30 31 31 32 32 32 32 32 32 32 32 31 31 31 31 31 31 31 31 32 31 31 31 30 29 29 29 29 29 29 29 30 30
28 29 29 30 30 30 30 30 30 30 31 31 31 32 32 32 32 32 32 32 33 33 32 32 32 32 32 32 32 32 32 31 31 30 29 29 29 29 29 29 30 30
Wind_Direction
206 207 207 207 207 207 207 206 205 203 201 200 199 199 200 199 197 196 195 193 192 192 192 191 189 185 181 177 174 172 168 164 159 158 162 164 165 167 171 172 174 177
207 208 209 209 209 209 209 209 207 206 205 204 202 201 201 201 200 199 199 197 197 197 197 196 195 192 190 186 182 180 178 174 168 163 165 169 169 171 175 179 181 184
209 210 210 211 211 211 211 211 210 209 208 207 205 204 204 204 203 203 202 202 202 202 201 201 200 198 197 195 191 189 187 184 180 176 178 180 178 178 180 182 186 189
210 211 212 212 212 213 213 213 212 211 210 209 208 207 207 207 207 206 206 206 206 207 206 205 205 204 203 202 200 199 197 195 192 190 192 193 190 189 188 189 191 193
211 212 213 214 213 214 215 215 214 213 212 211 210 209 209 209 209 209 210 210 210 211 211 210 209 208 207 207 208 208 207 205 204 203 203 204 202 198 195 196 197 199
212 213 214 215 214 214 215 216 216 215 214 213 212 212 211 211 211 212 213 213 214 215 215 215 214 213 212 212 213 214 215 214 213 212 212 213 212 208 204 203 204 207
214 214 215 215 215 215 216 217 217 217 217 215 214 214 214 213 213 214 215 216 217 218 219 219 219 218 217 217 217 219 220 220 220 219 220 221 221 219 216 215 215 216
215 215 216 217 217 217 217 218 219 219 219 218 217 217 217 216 216 216 217 218 219 220 221 223 222 222 222 222 222 223 224 225 225 225 226 227 228 227 226 226 226 227
217 217 217 217 218 218 218 219 220 220 220 220 220 220 219 219 219 219 220 221 222 223 224 225 225 225 226 226 226 226 227 228 229 229 229 230 232 232 232 233 233 234
218 218 218 219 219 220 220 220 220 221 221 222 222 222 222 222 222 222 223 223 224 225 225 226 228 228 229 229 229 229 230 231 232 233 233 233 235 235 236 237 237 238
220 219 220 220 221 221 221 221 221 221 222 223 223 224 224 225 225 225 225 225 226 227 228 228 229 230 231 231 232 232 232 233 234 235 235 235 237 238 239 239 240 241
221 221 221 221 222 222 222 222 222 222 223 224 224 225 225 227 228 228 228 228 228 229 230 230 231 231 232 233 234 235 235 235 235 235 236 237 238 239 241 242 243 244
223 223 223 223 223 224 223 223 223 224 224 224 225 226 227 227 229 230 231 231 230 231 232 233 233 233 234 234 235 236 236 236 236 236 237 238 239 241 242 244 246 247
224 224 225 225 225 226 225 225 224 225 226 226 226 228 228 229 229 231 233 234 234 233 234 235 235 235 235 236 236 237 237 238 238 238 239 239 241 242 243 245 246 248
225 225 225 227 227 227 227 227 227 227 227 228 228 229 230 231 231 232 233 235 236 235 235 236 237 237 237 237 237 237 238 239 240 240 241 241 242 243 244 246 247 248
227 226 226 227 229 229 229 229 229 229 229 230 230 231 232 232 233 234 234 235 237 237 237 237 239 239 238 237 238 238 239 240 242 242 243 243 244 245 245 247 248 250
227 228 228 228 229 230 230 230 231 231 231 232 232 233 233 234 234 235 236 237 237 238 238 239 240 241 239 238 239 239 241 242 243 244 245 245 245 246 247 248 249 250
228 228 228 229 229 230 231 231 232 233 233 233 234 234 235 235 235 236 237 238 239 239 240 240 241 241 240 240 240 241 242 243 245 246 247 247 247 247 248 248 249 250
229 229 229 230 230 230 231 232 233 234 235 235 236 236 236 236 236 237 238 238 239 240 241 241 242 242 241 241 242 242 243 244 246 247 248 249 249 249 249 249 249 250
229 230 230 231 232 232 233 233 234 235 236 236 237 237 238 238 239 239 239 239 240 241 242 243 243 243 242 242 243 243 244 245 246 248 249 250 250 251 251 251 251 251
230 230 231 232 233 233 234 235 235 236 236 237 238 238 239 240 241 241 241 241 241 241 243 244 244 244 244 243 243 244 244 246 247 248 249 250 250 251 251 252 252 252
230 231 231 232 233 234 234 235 236 236 237 237 238 239 239 240 241 242 243 243 243 243 244 245 245 245 245 244 245 245 245 246 248 248 249 249 250 250 251 251 252 252
231 231 231 232 233 234 235 236 237 237 238 238 239 239 240 241 242 242 243 244 244 245 245 246 246 246 245 245 245 245 246 247 248 248 249 249 250 250 251 251 251 251
233 233 233 234 234 235 236 237 238 238 239 239 240 241 241 242 242 242 244 245 245 246 246 247 247 246 245 244 245 245 245 247 247 248 248 249 250 250 251 251 251 251
237 236 235 235 236 236 237 238 238 239 239 240 241 241 242 242 242 242 244 245 245 246 247 247 248 247 245 244 244 244 245 246 247 247 248 249 250 250 251 251 252 252
239 239 238 238 238 239 239 239 239 240 240 240 241 241 242 243 243 243 244 245 245 246 246 247 248 248 246 245 244 244 244 246 246 247 248 249 250 250 251 252 252 252